KC3WWU Weather Reports


time (UTC)temp
C
wind
direction
speed
KPH
gust
KPH
rain 1hr
cm
rain 24hr
cm
rain mn
cm
humidity
%
barometer
mb
20260509150415 10 328 3.2 4.8 0.18 0.36 0.36 98 1007.3
20260509145914 10 86 1.6 1.6 0.18 0.36 0.36 98 1007.2
20260509145413 10 30 3.2 3.2 0.00 0.33 0.33 98 1007.7
20260509144909 10 9 4.8 4.8 0.13 0.33 0.33 98 1007.5
20260509144406 10 10 6.4 9.7 0.13 0.33 0.33 97 1007.4
20260509143903 10 25 6.4 11.3 0.00 0.30 0.30 97 1007.5
20260509143401 10 9 3.2 6.4 0.00 0.30 0.30 97 1007.2
20260509142857 10 32 3.2 4.8 0.00 0.30 0.30 96 1007.4
20260509142353 10 276 8.0 11.3 0.00 0.30 0.30 97 1007.6
20260509141849 10 71 3.2 3.2 0.00 0.30 0.30 97 1007.2
20260509141346 10 19 4.8 4.8 0.00 0.30 0.30 97 1007.4
20260509140842 10 96 3.2 3.2 0.00 0.30 0.30 97 1007.4
20260509140340 10 318 8.0 11.3 0.00 0.30 0.30 97 1007.3
20260509135838 10 4 3.2 3.2 0.00 0.30 0.30 98 1007.4
20260509135335 10 277 8.0 11.3 0.18 0.30 0.30 99 1007.5
20260509134832 10 89 3.2 4.8 0.18 0.30 0.30 99 1007.3
20260509134329 10 44 0.0 0.0 0.13 0.28 0.28 99 1007.6
20260509133826 10 310 3.2 4.8 0.13 0.28 0.28 99 1007.4
20260509133323 10 347 3.2 3.2 0.00 0.25 0.25 99 1007.7
20260509132822 10 18 4.8 6.4 0.18 0.25 0.25 99 1007.5
20260509132320 10 21 3.2 3.2 0.18 0.25 0.25 99 1007.4
20260509131816 10 33 3.2 4.8 0.18 0.25 0.25 99 1007.8
20260509131313 10 192 4.8 4.8 0.13 0.23 0.23 99 1007.5
20260509130809 10 43 1.6 3.2 0.13 0.23 0.23 99 1007.8
20260509130305 10 18 1.6 1.6 0.30 0.23 0.23 99 1007.7
20260509125802 9 250 3.2 4.8 0.18 0.20 0.20 99 1007.6
20260509125258 9 323 4.8 4.8 0.13 0.18 0.18 99 1007.7
20260509124755 9 47 1.6 1.6 0.13 0.18 0.18 98 1007.7
20260509124251 9 33 3.2 6.4 0.18 0.15 0.15 99 1007.5
20260509123750 9 67 0.0 0.0 0.18 0.15 0.15 99 1007.7
20260509123247 8 110 1.6 1.6 0.00 0.13 0.13 99 1007.7
20260509122742 9 47 1.6 1.6 0.00 0.13 0.13 98 1007.6
20260509122239 9 69 0.0 0.0 0.00 0.13 0.13 98 1007.6
20260509121736 8 41 1.6 3.2 0.13 0.13 0.13 98 1007.6
20260509121233 8 22 4.8 4.8 0.13 0.13 0.13 98 1007.6
20260509120732 8 336 3.2 4.8 0.00 0.10 0.10 98 1007.8
20260509120229 8 38 1.6 1.6 0.00 0.10 0.10 98 1007.7
20260509115727 8 357 3.2 3.2 0.00 0.10 0.10 97 1007.7
20260509115224 8 354 9.7 12.9 0.00 0.10 0.10 98 1007.6
20260509114722 8 42 3.2 3.2 0.00 0.10 0.10 98 1007.7
20260509114220 8 45 1.6 1.6 0.00 0.10 0.10 98 1007.7
20260509113719 8 104 3.2 4.8 0.00 0.10 0.10 98 1007.6
20260509113216 8 96 3.2 3.2 0.00 0.10 0.10 98 1007.7
20260509112712 8 242 3.2 3.2 0.00 0.10 0.10 98 1007.8
20260509112209 8 35 1.6 1.6 0.18 0.10 0.10 98 1007.6
20260509111706 8 63 0.0 0.0 0.18 0.10 0.10 97 1007.9
20260509111203 8 67 4.8 4.8 0.00 0.08 0.08 98 1007.8
20260509110700 8 48 1.6 1.6 0.00 0.08 0.08 98 1007.7
20260509110157 8 313 1.6 3.2 0.00 0.08 0.08 97 1007.6
20260509105655 8 41 1.6 1.6 0.00 0.08 0.08 96 1007.6
20260509105152 8 32 3.2 3.2 0.00 0.08 0.08 96 1007.8
20260509104649 8 6 3.2 3.2 0.00 0.08 0.08 97 1007.7
20260509104146 8 48 1.6 1.6 0.00 0.08 0.08 97 1007.8
20260509103644 8 76 4.8 4.8 0.00 0.08 0.08 97 1007.8
20260509103142 8 12 3.2 3.2 0.00 0.08 0.08 96 1007.7
20260509102639 8 47 1.6 3.2 0.13 0.08 0.08 96 1007.9
20260509102136 8 306 1.6 3.2 0.13 0.08 0.08 95 1007.8
20260509101632 8 323 3.2 4.8 0.13 0.08 0.08 96 1007.9
20260509101129 8 344 1.6 3.2 0.00 0.05 0.05 97 1008.0
20260509100626 8 67 1.6 1.6 0.00 0.05 0.05 96 1008.0
20260509100124 8 57 0.0 1.6 0.00 0.05 0.05 97 1008.0
20260509095620 8 67 0.0 1.6 0.00 0.05 0.05 96 1007.9
20260509095118 8 16 3.2 3.2 0.00 0.05 0.05 96 1007.9
20260509094613 7 40 1.6 3.2 0.18 0.05 0.05 98 1007.9
20260509094111 7 26 1.6 1.6 0.18 0.05 0.05 99 1007.9
20260509093610 7 306 4.8 4.8 0.00 0.03 0.03 99 1007.9
20260509093106 7 17 3.2 3.2 0.00 0.03 0.03 99 1007.9
20260509092604 7 45 0.0 0.0 0.00 0.03 0.03 99 1007.8
20260509092102 7 44 0.0 0.0 0.00 0.03 0.03 99 1007.8
20260509091600 7 62 0.0 0.0 0.00 0.03 0.03 99 1007.8
20260509091056 7 24 1.6 1.6 0.00 0.03 0.03 99 1007.4
20260509090553 7 32 1.6 1.6 0.00 0.03 0.03 99 1007.8
20260509090051 7 58 0.0 1.6 0.00 0.03 0.03 99 1007.5
20260509085548 7 76 1.6 1.6 0.00 0.03 0.03 99 1007.7
20260509085044 7 62 0.0 0.0 0.00 0.03 0.03 99 1007.8
20260509084541 7 63 0.0 0.0 0.00 0.03 0.03 99 1007.6
20260509084038 7 61 0.0 0.0 0.00 0.03 0.03 99 1007.7
20260509083536 7 61 0.0 0.0 0.00 0.03 0.03 99 1007.7
20260509083032 7 61 0.0 0.0 0.00 0.03 0.03 99 1007.6
20260509082530 7 61 0.0 1.6 0.00 0.03 0.03 99 1007.7
20260509082027 7 62 0.0 0.0 0.00 0.03 0.03 99 1007.3
20260509081524 7 62 0.0 0.0 0.00 0.03 0.03 99 1007.4
20260509081020 7 62 0.0 0.0 0.00 0.03 0.03 99 1007.6
20260509080519 6 62 0.0 0.0 0.00 0.03 0.03 99 1007.5
20260509080016 6 62 0.0 0.0 0.00 0.03 0.03 99 1007.5
20260509075513 6 62 0.0 0.0 0.00 0.03 0.03 99 1007.5
20260509075011 6 62 0.0 0.0 0.00 0.03 0.03 99 1007.5
20260509074508 6 63 0.0 0.0 0.00 0.03 0.03 99 1007.6
20260509074005 6 63 0.0 0.0 0.00 0.03 0.03 99 1007.4
20260509073501 6 63 0.0 0.0 0.00 0.03 0.03 99 1007.6
20260509072957 6 63 0.0 0.0 0.00 0.03 0.03 99 1007.5
20260509072455 6 63 0.0 0.0 0.00 0.03 0.03 99 1007.6
20260509071951 6 63 0.0 0.0 0.00 0.03 0.03 99 1007.7
20260509071447 6 63 0.0 0.0 0.00 0.03 0.03 99 1007.7
20260509070946 6 63 0.0 0.0 0.00 0.03 0.03 99 1007.7
20260509070442 6 63 0.0 0.0 0.00 0.03 0.03 99 1007.7
20260509065937 7 63 0.0 0.0 0.00 0.03 0.03 99 1007.8
20260509065434 7 63 0.0 0.0 0.00 0.03 0.03 99 1007.8
20260509064930 7 63 0.0 0.0 0.00 0.03 0.03 99 1007.9
20260509064428 7 69 0.0 0.0 0.00 0.03 0.03 99 1008.4
20260509063926 7 60 0.0 0.0 0.00 0.03 0.03 99 1008.4
20260509063421 7 59 0.0 0.0 0.00 0.03 0.03 99 1008.6
20260509062919 7 59 0.0 0.0 0.00 0.03 0.03 99 1008.5
20260509062416 7 59 0.0 0.0 0.00 0.03 0.03 99 1008.4
20260509061913 7 59 0.0 0.0 0.00 0.03 0.03 99 1008.5
20260509061411 7 59 0.0 0.0 0.00 0.03 0.03 99 1008.5
20260509060907 7 59 0.0 0.0 0.00 0.03 0.03 99 1008.5
20260509060405 7 59 0.0 0.0 0.00 0.03 0.03 99 1008.7
20260509055859 7 60 0.0 0.0 0.00 0.03 0.03 99 1008.8
20260509055355 7 60 0.0 0.0 0.00 0.03 0.03 99 1008.9
20260509054853 7 52 0.0 0.0 0.00 0.03 0.03 99 1009.1
20260509054349 7 52 0.0 0.0 0.00 0.03 0.03 99 1009.2
20260509053848 7 52 0.0 0.0 0.00 0.03 0.03 99 1009.2
20260509053345 7 52 0.0 0.0 0.00 0.03 0.03 99 1009.2
20260509052843 7 52 0.0 0.0 0.00 0.03 0.03 99 1009.2
20260509052340 7 52 0.0 0.0 0.00 0.03 0.03 99 1009.0
20260509051838 7 54 0.0 0.0 0.00 0.03 0.03 99 1009.4
20260509051336 7 54 0.0 0.0 0.00 0.03 0.03 99 1009.1
20260509050832 7 52 0.0 0.0 0.00 0.03 0.03 99 1009.2
20260509050329 7 52 0.0 0.0 0.00 0.03 0.03 99 1009.3
20260509045826 7 52 0.0 0.0 0.00 0.03 0.03 99 1009.3
20260509045322 7 52 0.0 0.0 0.00 0.03 0.03 99 1009.6
20260509044820 7 52 0.0 0.0 0.00 0.03 0.03 99 1009.6
20260509044317 7 53 0.0 0.0 0.00 0.03 0.03 99 1009.6
20260509043814 7 53 0.0 0.0 0.00 0.03 0.03 99 1009.7
20260509043310 7 53 0.0 0.0 0.00 0.03 0.03 99 1009.7
20260509042806 7 53 0.0 0.0 0.18 0.03 0.03 99 1009.7
20260509042306 7 53 0.0 0.0 0.18 0.03 0.03 99 1009.8
20260509041759 7 53 0.0 0.0 0.18 0.03 0.03 99 1009.8
20260509041256 7 55 0.0 0.0 0.00 0.00 0.00 99 1010.0
20260509040754 7 53 0.0 0.0 0.00 0.00 0.00 99 1010.2
20260509040251 7 53 0.0 0.0 0.00 0.00 0.00 99 1010.0
20260509035748 7 53 0.0 0.0 0.00 0.03 0.03 99 1010.4
20260509035245 7 53 0.0 0.0 0.00 0.03 0.03 99 1010.2
20260509034742 7 53 0.0 0.0 0.00 0.03 0.03 99 1010.2
20260509034239 7 53 0.0 0.0 0.00 0.03 0.03 99 1010.4
20260509033736 7 53 0.0 0.0 0.00 0.03 0.03 99 1010.0
20260509033233 7 53 0.0 0.0 0.00 0.03 0.03 99 1010.0
20260509032730 7 53 0.0 0.0 0.00 0.03 0.03 99 1010.2
20260509032227 7 53 0.0 0.0 0.00 0.03 0.03 99 1010.3
20260509031725 7 53 0.0 0.0 0.00 0.03 0.03 99 1010.3
20260509031222 7 53 0.0 0.0 0.00 0.03 0.03 99 1010.5
20260509030720 7 53 0.0 0.0 0.00 0.03 0.03 98 1010.3
20260509030217 7 55 0.0 0.0 0.00 0.03 0.03 98 1010.4
20260509025713 7 52 0.0 0.0 0.13 0.03 0.03 98 1010.3
20260509025209 7 44 0.0 0.0 0.13 0.03 0.03 97 1010.3
20260509024705 7 44 0.0 0.0 0.00 0.00 0.00 97 1010.4
20260509024201 7 44 0.0 0.0 0.00 0.00 0.00 97 1010.3
20260509023659 7 42 0.0 0.0 0.00 0.00 0.00 96 1010.2
20260509023156 7 77 0.0 0.0 0.00 0.00 0.00 96 1009.9
20260509022652 8 77 0.0 0.0 0.00 0.00 0.00 96 1010.3
20260509022150 8 77 0.0 0.0 0.00 0.00 0.00 96 1010.0
20260509021646 8 77 0.0 0.0 0.00 0.00 0.00 96 1009.9
20260509021143 7 78 0.0 0.0 0.00 0.00 0.00 95 1009.9
20260509020642 8 78 0.0 0.0 0.00 0.00 0.00 95 1010.0
20260509020138 7 78 0.0 0.0 0.00 0.00 0.00 95 1010.0
20260509015637 7 78 0.0 0.0 0.00 0.00 0.00 95 1009.8
20260509015134 7 80 0.0 0.0 0.00 0.00 0.00 95 1009.9
20260509014631 7 78 0.0 1.6 0.00 0.00 0.00 96 1009.8
20260509014127 7 48 0.0 1.6 0.00 0.00 0.00 96 1009.7
20260509013624 8 51 0.0 0.0 0.00 0.00 0.00 96 1009.8
20260509013120 8 68 0.0 1.6 0.00 0.00 0.00 96 1009.4
20260509012617 8 71 1.6 1.6 0.00 0.00 0.00 95 1009.5
20260509012113 8 70 1.6 1.6 0.00 0.00 0.00 95 1009.7
20260509011612 8 70 0.0 0.0 0.00 0.00 0.00 96 1009.7
20260509011108 8 70 0.0 0.0 0.00 0.00 0.00 95 1009.6
20260509010606 8 70 0.0 0.0 0.00 0.00 0.00 95 1009.5
20260509005600 8 55 1.6 1.6 0.00 0.00 0.00 94 1009.7
20260509005055 8 38 0.0 0.0 0.00 0.00 0.00 93 1009.8
20260509004553 8 59 0.0 0.0 0.00 0.00 0.00 93 1010.0
20260509004049 8 59 0.0 1.6 0.00 0.00 0.00 94 1009.6
20260509003548 8 59 0.0 0.0 0.00 0.00 0.00 94 1009.7
20260509003044 8 59 0.0 0.0 0.00 0.00 0.00 94 1009.3
20260509002542 8 59 0.0 1.6 0.00 0.00 0.00 94 1009.4
20260509002040 8 56 0.0 0.0 0.00 0.00 0.00 94 1009.4
20260509001537 8 55 0.0 0.0 0.00 0.00 0.00 94 1009.3
20260509001032 8 60 0.0 0.0 0.00 0.00 0.00 94 1009.4
20260509000531 8 60 0.0 0.0 0.00 0.00 0.00 93 1009.6
20260509000027 8 60 1.6 1.6 0.00 0.00 0.00 92 1009.4
20260508235525 8 46 0.0 0.0 0.00 0.00 0.00 92 1009.3
20260508235020 8 35 0.0 1.6 0.00 0.00 0.00 90 1009.4
20260508234518 9 34 0.0 0.0 0.00 0.00 0.00 90 1009.3
20260508234015 9 45 0.0 0.0 0.00 0.00 0.00 89 1009.4
20260508233515 9 65 0.0 0.0 0.00 0.00 0.00 88 1009.4
20260508233011 9 5 3.2 3.2 0.00 0.00 0.00 88 1009.5
20260508232508 9 3 3.2 3.2 0.00 0.00 0.00 87 1009.5
20260508232005 9 1 3.2 3.2 0.00 0.00 0.00 87 1009.5
20260508231503 10 5 3.2 3.2 0.00 0.00 0.00 88 1009.4
20260508231000 10 341 1.6 3.2 0.00 0.00 0.00 87 1009.4
20260508230456 10 10 1.6 3.2 0.00 0.00 0.00 86 1009.5
20260508225953 10 292 4.8 4.8 0.00 0.00 0.00 87 1009.4
20260508225450 10 340 3.2 3.2 0.00 0.00 0.00 86 1009.4
20260508224947 10 350 1.6 3.2 0.00 0.00 0.00 86 1009.5
20260508224444 10 336 3.2 3.2 0.00 0.00 0.00 87 1009.7
20260508223942 10 8 1.6 3.2 0.00 0.00 0.00 87 1009.5
20260508223440 10 1 3.2 3.2 0.00 0.00 0.00 86 1009.6
20260508222936 10 316 1.6 3.2 0.00 0.00 0.00 84 1009.3
20260508222434 10 340 4.8 4.8 0.00 0.00 0.00 82 1009.6
20260508221930 10 289 3.2 4.8 0.00 0.00 0.00 81 1009.3
20260508221426 11 3 1.6 3.2 0.00 0.00 0.00 80 1009.2
20260508220923 11 22 4.8 6.4 0.00 0.00 0.00 78 1009.3
20260508220419 11 321 6.4 6.4 0.00 0.00 0.00 76 1009.3
20260508215915 11 4 6.4 6.4 0.00 0.00 0.00 77 1009.2
20260508215413 11 20 6.4 6.4 0.00 0.00 0.00 78 1009.2
20260508214909 11 258 1.6 3.2 0.00 0.00 0.00 78 1009.2
20260508214407 11 326 3.2 4.8 0.00 0.00 0.00 81 1009.4
20260508213903 10 279 6.4 6.4 0.00 0.00 0.00 81 1009.4
20260508213400 10 338 4.8 4.8 0.00 0.00 0.00 79 1009.4
20260508212855 10 6 4.8 4.8 0.00 0.00 0.00 80 1009.4
20260508212353 10 313 6.4 11.3 0.00 0.00 0.00 80 1009.2
20260508211848 11 27 6.4 11.3 0.00 0.00 0.00 79 1009.2
20260508211344 11 236 4.8 4.8 0.00 0.00 0.00 78 1009.3
20260508210842 11 320 6.4 6.4 0.00 0.00 0.00 75 1009.3
20260508210338 11 295 6.4 6.4 0.00 0.00 0.00 74 1009.6
20260508205835 11 300 9.7 12.9 0.00 0.00 0.00 73 1009.1
20260508205332 11 270 4.8 4.8 0.00 0.00 0.00 74 1009.2
20260508204828 11 287 6.4 6.4 0.00 0.00 0.00 74 1009.5
20260508204325 11 300 17.7 22.5 0.00 0.00 0.00 72 1009.3
20260508203821 11 345 4.8 4.8 0.00 0.00 0.00 74 1009.6
20260508203317 11 294 6.4 11.3 0.00 0.00 0.00 72 1009.4
20260508202813 11 279 6.4 11.3 0.00 0.00 0.00 71 1009.5
20260508202311 11 309 8.0 9.7 0.00 0.00 0.00 70 1009.5
20260508201808 12 20 9.7 11.3 0.00 0.00 0.00 69 1009.6
20260508201304 12 289 6.4 9.7 0.00 0.00 0.00 68 1009.6
20260508200801 12 129 3.2 4.8 0.00 0.00 0.00 67 1009.4
20260508200257 12 286 6.4 9.7 0.00 0.00 0.00 66 1009.4
20260508195753 12 283 3.2 4.8 0.00 0.00 0.00 68 1009.3
20260508195250 12 336 3.2 4.8 0.00 0.00 0.00 68 1009.4
20260508194747 12 338 8.0 14.5 0.00 0.00 0.00 67 1009.5
20260508194244 12 359 9.7 11.3 0.00 0.00 0.00 69 1009.6
20260508193741 12 298 8.0 9.7 0.00 0.00 0.00 68 1009.6
20260508193237 12 276 4.8 6.4 0.00 0.00 0.00 70 1009.7
20260508192734 12 281 12.9 14.5 0.00 0.00 0.00 68 1009.7
20260508192231 12 309 8.0 11.3 0.00 0.00 0.00 71 1009.6
20260508191728 13 294 12.9 14.5 0.00 0.00 0.00 66 1009.6
20260508191225 13 300 6.4 9.7 0.00 0.00 0.00 62 1009.2
20260508190722 13 333 11.3 12.9 0.00 0.00 0.00 60 1009.5
20260508190218 13 309 6.4 12.9 0.00 0.00 0.00 60 1009.3
20260508185715 13 5 3.2 4.8 0.00 0.00 0.00 59 1009.4
20260508185213 13 5 11.3 17.7 0.00 0.00 0.00 59 1009.5
20260508184710 13 338 8.0 9.7 0.00 0.00 0.00 60 1009.4
20260508184207 13 295 3.2 3.2 0.00 0.00 0.00 60 1009.6
20260508183703 13 326 3.2 6.4 0.00 0.00 0.00 58 1009.6
20260508183159 13 326 9.7 12.9 0.00 0.00 0.00 60 1009.6
20260508182655 12 315 6.4 9.7 0.00 0.00 0.00 59 1009.6
20260508182152 12 316 16.1 25.7 0.00 0.00 0.00 59 1009.4
20260508181648 13 261 6.4 6.4 0.00 0.00 0.00 58 1009.5
20260508181145 13 345 4.8 6.4 0.00 0.00 0.00 58 1009.5
20260508180642 13 345 3.2 4.8 0.00 0.00 0.00 53 1009.3
20260508180139 13 7 12.9 20.9 0.00 0.00 0.00 53 1009.1
20260508175635 14 310 8.0 9.7 0.00 0.00 0.00 53 1009.4
20260508175132 13 310 6.4 6.4 0.00 0.00 0.00 53 1009.3
20260508174630 14 40 1.6 3.2 0.00 0.00 0.00 53 1009.5
20260508174126 15 318 4.8 4.8 0.00 0.00 0.00 51 1009.5
20260508173623 15 310 8.0 12.9 0.00 0.00 0.00 50 1009.8
20260508173119 15 240 8.0 9.7 0.00 0.00 0.00 50 1009.6
20260508172617 15 304 11.3 16.1 0.00 0.00 0.00 52 1009.9
20260508172113 15 332 3.2 4.8 0.00 0.00 0.00 50 1010.2
20260508171610 15 300 8.0 11.3 0.00 0.00 0.00 55 1009.8
20260508171106 13 298 6.4 6.4 0.00 0.00 0.00 54 1010.0
20260508170604 13 343 6.4 11.3 0.00 0.00 0.00 55 1010.0
20260508170101 15 321 8.0 11.3 0.00 0.00 0.00 55 1010.3
20260508165558 13 291 9.7 11.3 0.00 0.00 0.00 55 1010.0
20260508165055 13 20 4.8 4.8 0.00 0.00 0.00 56 1010.4
20260508164551 12 329 3.2 4.8 0.00 0.00 0.00 59 1010.4
20260508164048 12 181 3.2 4.8 0.00 0.00 0.00 59 1010.9
20260508163546 12 231 6.4 6.4 0.00 0.00 0.00 58 1010.5
20260508163042 13 336 6.4 6.4 0.00 0.00 0.00 57 1010.5
20260508162539 13 272 4.8 6.4 0.00 0.00 0.00 59 1010.6
20260508162037 13 294 11.3 14.5 0.00 0.00 0.00 58 1010.5
20260508161533 14 335 16.1 16.1 0.00 0.00 0.00 55 1010.7
20260508161030 13 85 1.6 3.2 0.00 0.00 0.00 58 1010.6
20260508160529 13 335 6.4 6.4 0.00 0.00 0.00 57 1010.7
20260508160025 12 323 4.8 4.8 0.00 0.00 0.00 58 1010.5
20260508155522 13 290 9.7 12.9 0.00 0.00 0.00 57 1010.6
20260508155019 12 310 12.9 14.5 0.00 0.00 0.00 59 1010.9
20260508154517 12 309 11.3 17.7 0.00 0.00 0.00 59 1010.8
20260508154013 12 45 6.4 11.3 0.00 0.00 0.00 58 1010.9
20260508153510 12 328 6.4 11.3 0.00 0.00 0.00 60 1010.9
20260508153006 11 5 3.2 3.2 0.00 0.00 0.00 59 1010.8
20260508152503 12 327 6.4 9.7 0.00 0.00 0.00 58 1010.8
20260508151959 12 273 6.4 9.7 0.00 0.00 0.00 57 1011.0
20260508151456 12 301 6.4 6.4 0.00 0.00 0.00 59 1010.6
20260508150952 12 359 8.0 11.3 0.00 0.00 0.00 58 1010.9